Voltar ao catálogo

STARLINK-11145

AtivoComunicaçõesVLEO
NORAD 59945·PAYLOAD·🇺🇸 United States

Lançado Jun 5, 2024 de Cape Canaveral Space Force Station

Loading…

Próximas Passagens (próximas 24 horas)

TLE

AtualizadoSource: CelesTrak SupGP

Época: Sep 14, 2026, 20:34 UTC

1 59945C 24107A   26257.85743056  .00069014  00000+0  56855-3 0  2574
2 59945  53.1576  39.0481 0001144  69.5510 256.2012 15.69672494    14

Acompanhe STARLINK-11145 em tempo real com AllMySat

Download on the App Store